STARLINK-31442 (59859 NORAD) Tracking and Keplerian Element Data

This shows tracking and keplerian element data for the satellite.

Feedback or suggestion? Click here.




ElementValue
Catalog59859
NameSTARLINK-31442
Epoch Orbit293
Epoch Day159.91667824
Epoch Year2024
RAAN329.2699
Inclination43.0056
Eccentricity0.0001723
Argument of Perigee284.5666
Mean Anonmoly317.1218
Mean Motion15.80123536
Decay Rate-0.00842802
L11 59859U 24098B 24159.91667824 -.00842802 00000+0 -48128-2 0 9993
L22 59859 43.0056 329.2699 0001723 284.5666 317.1218 15.80123536 2937



Live tracking and technical data element details for STARLINK-31442 (NORAD 59859). STARLINK-31442 can be tracked NOW for your location showing map with azimuth and elevation plus other details from your city location.







IsCatalogInMostPopularTable: catalog: 59859, numindb: 9
Update: records affected: 1



GetName: 59859 STARLINK-31442

Hit Count: updated at: Thu, 25 Jul 2024 00:56:50 GMT